TimeAKST,TemperatureF,Dew PointF,Humidity,Sea Level PressureIn,VisibilityMPH,Wind Direction,Wind SpeedMPH,Gust SpeedMPH,PrecipitationIn,Events,Conditions,WindDirDegrees,DateUTC
12:16 AM,-9999,-9999,N/A,30.08,10.0,ESE,3.5,-,N/A,,Unknown,120,2013-02-16 09:16:00
12:36 AM,-20.2,-20.2,100,30.10,10.0,SE,3.5,-,N/A,,Unknown,140,2013-02-16 09:36:00
12:56 AM,-9999,-9999,N/A,30.10,10.0,Calm,Calm,-,N/A,,Unknown,0,2013-02-16 09:56:00
1:16 AM,-22.0,-9999,N/A,30.11,10.0,Calm,Calm,-,N/A,,Unknown,0,2013-02-16 10:16:00
1:36 AM,-20.2,-25.6,76,30.12,10.0,Calm,Calm,-,N/A,,Unknown,0,2013-02-16 10:36:00
1:56 AM,-23.8,-9999,N/A,30.12,10.0,Calm,Calm,-,N/A,,Unknown,0,2013-02-16 10:56:00
2:16 AM,-25.6,-9999,N/A,30.12,10.0,SSW,5.8,-,N/A,,Unknown,200,2013-02-16 11:16:00
2:36 AM,-25.6,-9999,N/A,30.13,10.0,Calm,Calm,-,N/A,,Unknown,0,2013-02-16 11:36:00
2:56 AM,-25.6,-25.6,100,30.13,10.0,South,4.6,-,N/A,,Unknown,170,2013-02-16 11:56:00
3:16 AM,-25.6,-9999,N/A,30.13,5.0,Calm,Calm,-,N/A,,Unknown,0,2013-02-16 12:16:00
3:36 AM,-23.8,-9999,N/A,30.14,5.0,Calm,Calm,-,N/A,,Unknown,0,2013-02-16 12:36:00
3:56 AM,-22.0,-9999,N/A,30.14,6.0,South,3.5,-,N/A,,Unknown,180,2013-02-16 12:56:00
4:16 AM,-20.2,-9999,N/A,30.14,7.0,SSE,3.5,-,N/A,,Unknown,160,2013-02-16 13:16:00
4:36 AM,-20.2,-9999,N/A,30.14,5.0,SSE,3.5,-,N/A,,Unknown,160,2013-02-16 13:36:00
4:56 AM,-20.2,-9999,N/A,30.14,5.0,Calm,Calm,-,N/A,,Unknown,0,2013-02-16 13:56:00
5:16 AM,-20.2,-9999,N/A,30.15,7.0,Calm,Calm,-,N/A,,Unknown,0,2013-02-16 14:16:00
5:36 AM,-9999,-9999,N/A,30.15,7.0,Calm,Calm,-,N/A,,Unknown,0,2013-02-16 14:36:00
5:56 AM,-23.8,-9999,N/A,30.16,10.0,Calm,Calm,-,N/A,,Unknown,0,2013-02-16 14:56:00
6:16 AM,-22.0,-9999,N/A,30.16,10.0,Calm,Calm,-,N/A,,Unknown,0,2013-02-16 15:16:00
6:36 AM,-23.8,-23.8,100,30.16,10.0,Calm,Calm,-,N/A,,Unknown,0,2013-02-16 15:36:00
6:56 AM,-25.6,-9999,N/A,30.17,10.0,Calm,Calm,-,N/A,,Unknown,0,2013-02-16 15:56:00
7:16 AM,-27.4,-9999,N/A,30.17,9.0,Calm,Calm,-,N/A,,Unknown,0,2013-02-16 16:16:00
7:36 AM,-27.4,-9999,N/A,30.18,10.0,Calm,Calm,-,N/A,,Unknown,0,2013-02-16 16:36:00
7:56 AM,-27.4,-9999,N/A,30.18,3.0,Calm,Calm,-,N/A,,Unknown,0,2013-02-16 16:56:00
8:16 AM,-31.0,-9999,N/A,30.18,6.0,Calm,Calm,-,N/A,,Unknown,0,2013-02-16 17:16:00
8:36 AM,-29.2,-9999,N/A,30.19,5.0,Calm,Calm,-,N/A,,Unknown,0,2013-02-16 17:36:00
8:56 AM,-25.6,-25.6,100,30.18,5.0,Calm,Calm,-,N/A,,Unknown,0,2013-02-16 17:56:00
9:16 AM,-9999,-9999,N/A,30.18,5.0,Calm,Calm,-,N/A,,Unknown,0,2013-02-16 18:16:00
9:36 AM,-29.2,-9999,N/A,30.19,5.0,Calm,Calm,-,N/A,,Unknown,0,2013-02-16 18:36:00
9:56 AM,-32.8,-9999,N/A,30.19,3.0,Calm,Calm,-,N/A,,Unknown,0,2013-02-16 18:56:00
10:16 AM,-29.2,-9999,N/A,30.19,2.5,Calm,Calm,-,N/A,,Unknown,0,2013-02-16 19:16:00
10:36 AM,-27.4,-9999,N/A,30.20,1.2,Calm,Calm,-,N/A,,Unknown,0,2013-02-16 19:36:00
10:56 AM,-9999,-9999,N/A,30.20,1.5,Calm,Calm,-,N/A,,Unknown,0,2013-02-16 19:56:00
11:16 AM,-29.2,-9999,N/A,30.21,1.8,Calm,Calm,-,N/A,,Unknown,0,2013-02-16 20:16:00
11:36 AM,-27.4,-9999,N/A,30.22,1.8,Calm,Calm,-,N/A,,Unknown,0,2013-02-16 20:36:00
11:56 AM,-29.2,-9999,N/A,30.22,1.0,Calm,Calm,-,N/A,,Unknown,0,2013-02-16 20:56:00
12:16 PM,-29.2,-9999,N/A,30.23,1.0,Calm,Calm,-,N/A,,Unknown,0,2013-02-16 21:16:00
12:36 PM,-25.6,-9999,N/A,30.23,1.0,NNW,3.5,-,N/A,,Unknown,340,2013-02-16 21:36:00
12:56 PM,-25.6,-25.6,100,30.24,1.0,Calm,Calm,-,N/A,,Unknown,0,2013-02-16 21:56:00
1:16 PM,-27.4,-9999,N/A,30.24,0.8,Calm,Calm,-,N/A,,Unknown,0,2013-02-16 22:16:00
1:36 PM,-25.6,-9999,N/A,30.23,1.0,Calm,Calm,-,N/A,,Unknown,0,2013-02-16 22:36:00
1:56 PM,-23.8,-9999,N/A,30.24,3.0,Calm,Calm,-,N/A,,Unknown,0,2013-02-16 22:56:00
2:16 PM,-23.8,-25.6,91,30.24,5.0,Calm,Calm,-,N/A,,Unknown,0,2013-02-16 23:16:00
2:36 PM,-25.6,-9999,N/A,30.24,5.0,Calm,Calm,-,N/A,,Unknown,0,2013-02-16 23:36:00
2:56 PM,-25.6,-9999,N/A,30.25,6.0,Calm,Calm,-,N/A,,Unknown,0,2013-02-16 23:56:00
3:16 PM,-23.8,-29.2,76,30.24,9.0,Calm,Calm,-,N/A,,Unknown,0,2013-02-17 00:16:00
3:36 PM,-23.8,-9999,N/A,30.24,7.0,Calm,Calm,-,N/A,,Unknown,0,2013-02-17 00:36:00
3:56 PM,-23.8,-9999,N/A,30.25,3.0,Calm,Calm,-,N/A,,Unknown,0,2013-02-17 00:56:00
4:16 PM,-20.2,-20.2,100,30.24,2.5,Calm,Calm,-,N/A,,Unknown,0,2013-02-17 01:16:00
4:36 PM,-23.8,-9999,N/A,30.24,1.8,Calm,Calm,-,N/A,,Unknown,0,2013-02-17 01:36:00
4:56 PM,-23.8,-9999,N/A,30.24,2.0,Calm,Calm,-,N/A,,Unknown,0,2013-02-17 01:56:00
5:16 PM,-25.6,-9999,N/A,30.24,1.2,Calm,Calm,-,N/A,,Unknown,0,2013-02-17 02:16:00
5:36 PM,-9999,-9999,N/A,30.23,1.2,Calm,Calm,-,N/A,,Unknown,0,2013-02-17 02:36:00
5:56 PM,-27.4,-9999,N/A,30.24,1.0,Calm,Calm,-,N/A,,Unknown,0,2013-02-17 02:56:00
6:16 PM,-27.4,-9999,N/A,30.24,0.8,Calm,Calm,-,N/A,,Unknown,0,2013-02-17 03:16:00
6:36 PM,-27.4,-9999,N/A,30.24,1.0,Calm,Calm,-,N/A,,Unknown,0,2013-02-17 03:36:00
6:56 PM,-29.2,-9999,N/A,30.24,1.0,Calm,Calm,-,N/A,,Unknown,0,2013-02-17 03:56:00
7:16 PM,-29.2,-9999,N/A,30.24,1.5,Calm,Calm,-,N/A,,Unknown,0,2013-02-17 04:16:00
7:36 PM,-27.4,-9999,N/A,30.24,1.5,Calm,Calm,-,N/A,,Unknown,0,2013-02-17 04:36:00
7:56 PM,-25.6,-9999,N/A,30.24,1.8,Calm,Calm,-,N/A,,Unknown,0,2013-02-17 04:56:00
8:16 PM,-25.6,-9999,N/A,30.24,1.8,Calm,Calm,-,N/A,,Unknown,0,2013-02-17 05:16:00
8:36 PM,-25.6,-9999,N/A,30.24,1.8,Calm,Calm,-,N/A,,Unknown,0,2013-02-17 05:36:00
8:56 PM,-9999,-9999,N/A,30.23,3.0,NNW,8.1,-,N/A,,Unknown,330,2013-02-17 05:56:00
9:16 PM,-16.6,-9999,N/A,30.24,2.0,NNW,6.9,-,N/A,,Unknown,330,2013-02-17 06:16:00
9:36 PM,-16.6,-9999,N/A,30.24,2.0,NNW,5.8,-,N/A,,Unknown,340,2013-02-17 06:36:00
9:56 PM,-9999,-9999,N/A,30.24,2.0,NNW,3.5,-,N/A,,Unknown,330,2013-02-17 06:56:00
10:16 PM,-18.4,-18.4,100,30.24,1.5,NNW,6.9,-,N/A,,Unknown,340,2013-02-17 07:16:00
10:36 PM,-9999,-9999,N/A,30.23,5.0,North,6.9,-,N/A,,Unknown,350,2013-02-17 07:36:00
10:56 PM,-9999,-9999,N/A,30.24,4.0,North,5.8,-,N/A,,Unknown,350,2013-02-17 07:56:00
11:16 PM,-18.4,-18.4,100,30.24,1.8,North,5.8,-,N/A,,Unknown,350,2013-02-17 08:16:00
11:36 PM,-18.4,-9999,N/A,30.25,1.8,North,5.8,-,N/A,,Unknown,10,2013-02-17 08:36:00
11:56 PM,-18.4,-20.2,91,30.25,1.5,North,5.8,-,N/A,,Unknown,350,2013-02-17 08:56:00